Location: Laura�t
(43.9341°N, 0.2497°E)
Time: 22:50:02
(UTC+00:00)

BREEZE-M DEB (TANK) - Pass Details

Date: 03 March 2021
Orbit: 308 x 15403 km, 49.5° (Epoch: 17 April)

Event Time Altitude Azimuth Distance (km) Brightness Sun altitude
Rises 19:42:57 0° 292° (WNW) 2,107 6.8 -21.0°
Reaches altitude 10° 19:44:24 10° 302° (WNW) 1,433 5.4 -21.3°
Maximum altitude 19:47:01 39° 16° (NNE) 875 3.2 -21.7°
Enters shadow 19:47:34 37° 37° (NE) 988 3.3 -21.8°
